User: anonymous
Location: Holmes Observatory
(37.1039°N, 122.0513°W)
Time: 03:19:52
(UTC-07:00)
Language:

Cosmos 921 Rocket - Orbit

View from above orbital plane
View from above orbital plane
View from above satellite
View from above satellite

Ground track
Ground track

The orbit data is extracted from the following two-line orbital elements,

1 10096U 77055B   14208.21314904  .00000196  00000-0  23355-4 0  4802
2 10096 075.8341 074.5130 0042989 014.9463 123.7642 14.87825472  5160
Epoch (UTC): 27 July 2014 05:06:56
Eccentricity: 0.0042989
inclination: 75.8341°
perigee height: 575 km
apogee height: 635 km
right ascension of ascending node: 74.5130°
argument of perigee: 14.9463°
revolutions per day: 14.87825472
mean anomaly at epoch: 123.7642°
orbit number at epoch: 516

The dashed part of the orbit path shows where the satellite is in the earth's shadow,  

DLR